Showing default

KINEIS-2B, 62934

Orbit data source: Space-Track

KINEIS-2B, 62934 is a French payload satellite in SSO that was launched on Sat, 08 Feb 2025 UTC via an ELECTRON launch vehicle from the Rocket Lab Launch Complex (RLLC). Payload-class satellites include a variety of spacecraft equipped with specific instruments for various scientific and technological missions. These include communications satellites like Starlink; space stations such as the ISS; scientific satellites like the Hubble; Earth observation satellites from companies like Planet Labs, Umbra, and HawkEye 360; GPS; miniature CubeSats for education and research; and military/defense satellites.

Loading next visibility...
Identifier
62934, 2025-028G
Orbit
SSO
Last TLE update
1 day ago
Origin
Manufacturer
KINEIS
Mission
Operational Commercial Communications
Bus & Motor
CUBESAT 16U, Unknown motor
Mass
28 kg wet, 28 kg dry
Launch date (UTC)
2025-02-08 (5 months ago)
Launch vehicle
ELECTRON
Launch site
Rocket Lab Launch Complex (RLLC)
Object type
Payload
Rocket body
Debris
Shape & HBR
Box + 2 Pan + 1 Ant, 1.6 m
Radar Cross Section
0.229 m², Medium (>0.1 m² and < 1m²)

Expand to show TLE details & history

TLE from 1 day ago
0 KINEIS-2B
1 62934U 25028G   25183.15849532  .00001242  00000-0  19028-3 0  9999
2 62934  97.9626 236.7809 0002769 141.5239 218.6168 14.75395530 21130
Epoch: 2025-07-02T03:48Z
TLE epoch observation values (Epoch: 2025-07-02T03:48:13.995Z)
Latitude
-0.00004°
Longitude
-100.72102°
Altitude
648.429 km
Speed
7.533 km/s
True Right ascension
15h 47m 07s
True Declination
0° 00' 00"
Sunlit
Object was in full shadow at epoch
Visualization orbit readout
Latitude
-71.43002°
Longitude
55.79719°
Altitude
671.195 km
Speed
7.52 km/s
Apparent Right ascension
03h 05m 27s
Apparent Declination
-56° 38' 23"
Sunlit
Object is in daylight
Visualization observer readout
Local Sidereal Time
15:29:17
Azimuth
168.845° S
Elevation
-72.828°
Doppler factor
1
Orbital elements
Apogee altitude
642.889 km
Perigee altitude
639.002 km
Semi-major axis
7,019.083 km
Eccentricity
0.00028
Inclination
97.9626°
RAAN
236.7809°
Arg. of periapsis
141.5239°
True anomaly
Unknown
Mean anomaly
218.6168°
Eccentric anomaly
Unknown
Mean motion
3.69082 °/min
Orbital period
97.54 mins
BSTAR
0.00019028
Loading maneuver chart data...
Loading SW <> Apogee altitude chart data...
Loading historical data...
Loading historical data...
Loading historical data...
Loading historical data...
Loading historical data...
Loading historical data...
Loading historical data...

KINEIS-2B Visibility forecast

Observer location: undefined°, undefined°

Span
Click to sort rows by Start time (UTC) header in descending order
Start Az.
Max El. time (UTC)
Max El. Az.
Max El.
End time (UTC)
End Az.
7 mins2025-07-03 04:20:03.881Z205.183° SW2025-07-03 04:24:03.881Z273.77° WNW25.286°2025-07-03 04:27:03.881Z320.773° NNW
7 mins2025-07-03 16:12:03.881Z28.375° NE2025-07-03 16:15:03.881Z117.914° SE39.456°2025-07-03 16:19:03.881Z179.411° S
6 mins2025-07-04 03:09:03.881Z134.515° SE2025-07-04 03:12:03.881Z56.474° ENE34.469°2025-07-04 03:15:03.881Z4.543° NNE
|